Time,TemperatureF,DewpointF,PressureIn,WindDirection,WindDirectionDegrees,WindSpeedMPH,WindSpeedGustMPH,Humidity,HourlyPrecipIn,Conditions,Clouds,dailyrainin,SoftwareType,DateUTC
2013-05-07 00:02:00,44.2,25.3,30.15,WSW,239,2.0,12.0,47,0.00,,,0.00,VWS V13.01,2013-05-07 04:02:00,
2013-05-07 00:32:00,44.5,25.0,30.15,WSW,240,1.0,5.0,46,0.00,,,0.00,VWS V13.01,2013-05-07 04:32:00,
2013-05-07 01:02:00,45.0,25.0,30.14,WSW,240,0.0,3.0,45,0.00,,,0.00,VWS V13.01,2013-05-07 05:02:00,
2013-05-07 01:32:00,45.6,25.0,30.14,West,280,2.0,5.0,44,0.00,,,0.00,VWS V13.01,2013-05-07 05:32:00,
2013-05-07 03:02:00,45.2,24.0,30.12,West,275,0.0,4.0,43,0.00,,,0.00,VWS V13.01,2013-05-07 07:02:00,
2013-05-07 03:32:00,45.6,23.9,30.12,West,272,0.0,0.0,42,0.00,,,0.00,VWS V13.01,2013-05-07 07:32:00,
2013-05-07 04:02:00,45.6,23.9,30.12,WSW,244,2.0,7.0,42,0.00,,,0.00,VWS V13.01,2013-05-07 08:02:00,
2013-05-07 04:32:00,45.1,23.4,30.12,WSW,242,0.0,5.0,42,0.00,,,0.00,VWS V13.01,2013-05-07 08:32:00,
2013-05-07 05:02:00,45.4,23.7,30.12,WSW,242,0.0,0.0,42,0.00,,,0.00,VWS V13.01,2013-05-07 09:02:00,
2013-05-07 05:32:00,-56.8,-69.9,30.12,WSW,242,4.0,7.0,42,0.00,,,0.00,VWS V13.01,2013-05-07 09:32:00,
2013-05-07 06:02:00,-59.1,-72.0,30.13,WSW,246,0.0,6.0,42,0.00,,,0.00,VWS V13.01,2013-05-07 10:02:00,
2013-05-07 06:32:00,-59.1,-74.1,30.13,WSW,242,0.0,0.0,42,0.00,,,0.00,VWS V13.01,2013-05-07 10:32:00,
2013-05-07 07:02:00,-59.1,-76.3,30.13,WSW,239,8.0,10.0,42,0.00,,,0.00,VWS V13.01,2013-05-07 11:02:00,
2013-05-07 07:32:00,-59.1,-74.1,30.13,WSW,237,0.0,10.0,42,0.00,,,0.00,VWS V13.01,2013-05-07 11:32:00,
2013-05-07 09:00:00,0.0,0.0,30.14,WSW,248,3.0,7.0,0,0.00,,,0.00,VWS V13.01,2013-05-07 13:00:00,
2013-05-07 09:30:00,-59.1,0.0,30.14,WSW,248,0.0,4.0,0,0.00,,,0.00,VWS V13.01,2013-05-07 13:30:00,
2013-05-07 10:00:00,-56.8,0.0,30.14,WSW,248,4.0,9.0,0,0.00,,,0.00,VWS V13.01,2013-05-07 14:00:00,
2013-05-07 10:30:00,-56.8,0.0,30.13,West,270,2.0,7.0,0,0.00,,,0.00,VWS V13.01,2013-05-07 14:30:00,
2013-05-07 11:00:00,-50.1,0.0,30.13,West,270,3.0,13.0,0,0.00,,,0.00,VWS V13.01,2013-05-07 15:00:00,
2013-05-07 11:30:00,-47.8,0.0,30.13,SW,225,6.0,13.0,0,0.00,,,0.00,VWS V13.01,2013-05-07 15:30:00,
2013-05-07 12:00:00,62.3,43.4,30.13,West,270,7.0,13.0,50,0.00,,,0.00,VWS V13.01,2013-05-07 16:00:00,
2013-05-07 12:13:00,64.5,53.7,30.12,WSW,248,11.0,18.0,68,0.00,,,0.00,VWS V13.01,2013-05-07 16:13:00,
2013-05-07 12:32:00,65.0,53.0,30.11,WSW,258,14.0,20.0,65,0.00,,,0.00,VWS V13.01,2013-05-07 16:32:00,
2013-05-07 13:02:00,66.8,52.9,30.11,SW,229,18.0,21.0,61,0.00,,,0.00,VWS V13.01,2013-05-07 17:02:00,
2013-05-07 13:32:00,65.3,53.2,30.11,WSW,245,16.0,23.0,65,0.00,,,0.00,VWS V13.01,2013-05-07 17:32:00,
2013-05-07 14:02:00,64.3,52.7,30.11,SW,234,4.0,22.0,66,0.00,,,0.00,VWS V13.01,2013-05-07 18:02:00,
2013-05-07 14:32:00,64.8,53.2,30.10,SW,234,9.0,20.0,66,0.00,,,0.00,VWS V13.01,2013-05-07 18:32:00,
2013-05-07 15:02:00,64.4,52.4,30.09,SW,229,16.0,22.0,65,0.00,,,0.00,VWS V13.01,2013-05-07 19:02:00,
2013-05-07 15:32:00,64.9,52.5,30.09,SW,221,13.0,21.0,64,0.00,,,0.00,VWS V13.01,2013-05-07 19:32:00,
2013-05-07 16:02:00,64.1,52.5,30.08,WSW,257,16.0,24.0,66,0.00,,,0.00,VWS V13.01,2013-05-07 20:02:00,
2013-05-07 16:32:00,63.9,52.3,30.08,West,263,9.0,20.0,66,0.00,,,0.00,VWS V13.01,2013-05-07 20:32:00,
2013-05-07 17:02:00,63.8,53.0,30.07,SW,234,3.0,17.0,68,0.00,,,0.00,VWS V13.01,2013-05-07 21:02:00,
2013-05-07 17:32:00,62.4,52.1,30.07,SW,232,14.0,19.0,69,0.00,,,0.00,VWS V13.01,2013-05-07 21:32:00,
2013-05-07 18:02:00,61.8,52.3,30.07,WSW,238,6.0,18.0,71,0.00,,,0.00,VWS V13.01,2013-05-07 22:02:00,
2013-05-07 18:32:00,61.2,52.1,30.08,WSW,237,7.0,14.0,72,0.00,,,0.00,VWS V13.01,2013-05-07 22:32:00,
2013-05-07 19:02:00,57.1,42.9,30.09,SSW,209,2.0,20.0,59,0.00,,,0.00,VWS V13.01,2013-05-07 23:02:00,
2013-05-07 19:32:00,54.6,34.2,30.09,WSW,239,3.0,18.0,46,0.00,,,0.00,VWS V13.01,2013-05-07 23:32:00,
2013-05-07 20:02:00,55.0,31.1,30.10,WSW,242,9.0,18.0,40,0.00,,,0.00,VWS V13.01,2013-05-08 00:02:00,
2013-05-07 20:32:00,54.6,-88.2,30.11,WSW,240,2.0,11.0,38,0.00,,,0.00,VWS V13.01,2013-05-08 00:32:00,
2013-05-07 21:02:00,-48.4,-63.6,30.11,SW,235,0.0,4.0,38,0.00,,,0.00,VWS V13.01,2013-05-08 01:02:00,
2013-05-07 21:32:00,-48.9,-64.1,30.12,WSW,250,1.0,4.0,38,0.00,,,0.00,VWS V13.01,2013-05-08 01:32:00,
2013-05-07 22:02:00,-56.8,-71.3,30.12,SW,225,1.0,4.0,38,0.00,,,0.00,VWS V13.01,2013-05-08 02:02:00,
2013-05-07 22:32:00,-56.8,-71.3,30.13,SW,225,0.0,1.0,38,0.00,,,0.00,VWS V13.01,2013-05-08 02:32:00,
2013-05-07 23:02:00,-54.5,-69.2,30.14,SW,225,0.0,0.0,38,0.00,,,0.00,VWS V13.01,2013-05-08 03:02:00,
2013-05-07 23:32:00,-56.8,-71.3,30.14,SW,225,0.0,0.0,38,0.00,,,0.00,VWS V13.01,2013-05-08 03:32:00,